Location: NJAA Observatory
(40.6819°N, 74.8979°W)
Time: 11:25:28
(UTC-04:00)

Vanguard 1 - All Passes

Search period start: 22 October 2014 00:00
Search period end: 01 November 2014 00:00
Orbit: 652 x 3835 km, 34.2° (Epoch: 19 October)

Date Brightness Start Highest point End Pass type
(mag) Time Alt. Az. Time Alt. Az. Time Alt. Az.
22 Oct - 10:11:17 10° SW 10:15:04 27° SSE 10:19:07 10° ESE daylight
22 Oct - 12:30:06 10° WSW 12:34:35 44° S 12:41:06 10° ESE daylight
22 Oct - 14:49:27 10° WSW 14:54:54 32° SSW 15:03:37 10° SE daylight
22 Oct - 17:11:48 10° SW 17:16:29 14° SSW 17:22:28 10° S daylight
23 Oct - 08:15:22 10° S 08:16:55 11° SSE 08:18:24 10° SE daylight
23 Oct - 10:32:24 10° SW 10:36:23 33° SSE 10:40:50 10° ESE daylight
23 Oct - 12:51:30 10° WSW 12:56:01 41° S 13:02:42 10° ESE daylight
23 Oct - 15:11:14 10° WSW 15:16:30 25° SSW 15:24:29 10° SSE daylight
24 Oct - 08:35:05 10° SSW 08:38:17 17° SSE 08:41:11 10° ESE daylight
24 Oct - 10:53:39 10° WSW 10:57:45 38° S 11:02:28 10° ESE daylight
24 Oct - 13:12:57 10° WSW 13:17:29 36° S 13:24:11 10° SE daylight
24 Oct - 15:33:22 10° WSW 15:38:08 19° SSW 15:44:49 10° SSE daylight
25 Oct - 08:55:44 10° SW 08:59:39 23° SSE 09:03:09 10° ESE daylight
25 Oct - 11:15:00 10° WSW 11:19:08 40° S 11:24:03 10° ESE daylight
25 Oct - 13:34:30 10° WSW 13:38:58 30° SSW 13:45:27 10° SE daylight
25 Oct - 15:56:17 10° SW 15:59:48 14° SSW 16:04:09 10° S daylight
26 Oct - 06:59:35 10° S 07:01:09 11° SSE 07:02:35 10° SE visible
26 Oct - 09:16:46 10° SW 09:21:01 29° SSE 09:24:52 10° ESE daylight
26 Oct - 11:36:25 10° WSW 11:40:32 39° S 11:45:34 10° ESE daylight
26 Oct - 13:56:14 10° WSW 14:00:28 24° SSW 14:06:25 10° SSE daylight
27 Oct - 07:18:51 10° SSW 07:22:38 16° SSE 07:25:43 10° ESE daylight
27 Oct - 09:38:00 10° WSW 09:42:24 34° S 09:46:27 10° ESE daylight
27 Oct - 11:57:53 10° WSW 12:01:56 35° S 12:07:00 10° ESE daylight
27 Oct - 14:18:16 10° WSW 14:22:00 18° SSW 14:26:55 10° SSE daylight
28 Oct - 07:39:20 10° SSW 07:44:05 22° SSE 07:47:47 10° ESE daylight
28 Oct - 09:59:23 10° WSW 10:03:47 38° S 10:07:57 10° ESE daylight
28 Oct - 12:19:26 10° WSW 12:23:21 29° SSW 12:28:16 10° SE daylight
28 Oct - 14:41:07 10° SW 14:43:34 12° SSW 14:46:26 10° S daylight
29 Oct - 05:42:27 10° S 05:45:07 12° SSE 05:47:26 10° SE visible
29 Oct - 08:00:17 10° SW 08:05:32 28° SSE 08:09:31 10° ESE daylight
29 Oct - 10:20:50 10° WSW 10:25:10 38° S 10:29:24 10° ESE daylight
29 Oct - 12:41:07 10° WSW 12:44:46 23° SSW 12:49:18 10° SE daylight
30 Oct - 06:01:37 10° SSW 06:06:43 17° SSE 06:10:35 10° ESE visible
30 Oct - 08:21:31 10° SW 08:26:58 34° S 08:31:05 10° ESE daylight
30 Oct - 10:42:21 10° WSW 10:46:32 36° S 10:50:47 10° ESE daylight
30 Oct - 13:03:05 10° WSW 13:06:11 17° SSW 13:09:56 10° SSE daylight
31 Oct - 06:21:57 10° SSW 06:28:17 23° SSE 06:32:43 10° ESE visible
31 Oct - 08:42:56 10° WSW 08:48:23 39° S 08:52:33 10° ESE daylight
31 Oct - 11:03:55 10° WSW 11:07:54 31° SSW 11:12:03 10° SE daylight
31 Oct - 13:25:50 10° SW 13:27:38 12° SSW 13:29:38 10° S daylight
